Terminal Aerodrome Forecast
Issued by NWS

Home | Current Version | Previous Version | Text Only | Print | Product List | Glossary Off
Versions: 1 2 3 4 5 6 7 8 9 10 11 12 13 14 15 16 17 18 19 20 21 22 23 24 25

709
FTUS43 KABR 040955 AAB
TAFATY
TAF AMD
KATY 040955Z 0410/0506 19013KT P6SM FEW008 SCT011 BKN100
      TEMPO 0410/0411 BKN008 OVC011
     FM041400 26011KT P6SM BKN080
     FM041600 27014KT P6SM SCT150
     FM050000 19009KT P6SM SCT150=

USA.gov is the U.S. government's official web portal to all federal, state and local government web resources and services.